334  
ASUS41 KAKQ 131310  
RWRAKQ  
 
REGIONAL WEATHER ROUNDUP  
NATIONAL WEATHER SERVICE WAKEFIELD VA  
900 AM EDT TUE APR 13 2021  
 
NOTE: "FAIR" INDICATES FEW OR NO CLOUDS BELOW 12,000 FEET WITH NO  
SIGNIFICANT WEATHER AND/OR S TO VISIBILITY
. * = DENOTES  
STATION MAY NOT REPORT PRECIPITATION (E.G., RAIN,SNOW,ETC.),
 
THUNDER OR FOG.  
 
VAZ042-051-052>054-056-131400-  
NORTHERN VIRGINIA  
 
CITY SKY/WX TMP DP RH WIND PRES REMARKS
 
WASH NATIONAL CLOUDY 54 47 77 N5 30.07R  
DULLES CLOUDY 53 48 83 N5 30.06R  
FORT BELVOIR CLOUDY 52 48 87 NW5 30.06R  
QUANTICO NOT AVBL  
FREDERICKSBRG* NOT AVBL  
STAFFORD* NOT AVBL  
WARRENTON CLOUDY 53 49 87 CALM 30.06R  
CULPEPER* CLOUDY 53 51 93 CALM 30.08R FOG  
MANASSAS* NOT AVBL  
LEESBURG* CLOUDY 45 45 100 N3 30.08R FOG  
WINCHESTER CLOUDY 48 46 93 CALM 30.05R FOG  
FRONT ROYAL* FAIR 52 52 100 CALM 30.05R  
LURAY* FAIR 54 48 82 CALM 30.06R  

 
 
VAZ048-049-060>072-079>083-131400-  
CENTRAL AND SOUTH CENTRAL VIRGINIA  
 
CITY SKY/WX TMP DP RH WIND PRES REMARKS
 
RICHMOND CLOUDY 54 49 83 NW6 30.06R  
CHESTERFIELD* NOT AVBL  
PETERSBURG* PTSUNNY 56 49 78 NW5 30.06R  
HANOVER CLOUDY 54 49 83 CALM 30.08R  
TAPPAHANNOCK* FAIR 53 53 99 N6 30.05S  
QUINTON* CLOUDY 51 49 92 NW3 30.06R  
CHARLOTTSVILLE FAIR 57 50 77 CALM 30.05R  
GORDONSVILLE* NOT AVBL  
ORANGE* FAIR 54 50 87 CALM 30.06R  
LOUISA* FOG 50 N/A N/A CALM 30.10R VSB 1/2  
BUMPASS* PTSUNNY 53 51 95 CALM 30.06R  
FARMVILLE* NOT AVBL  
CREWE* NOT AVBL  
FORT PICKETT* PTSUNNY 54 54 100 NE8 30.06R  
CHASE CITY* NOT AVBL  
CLARKSVILLE* FAIR 57 50 77 N5 30.05R  
SOUTH HILL* FAIR 58 50 77 CALM 30.10R  
LAWRENCEVILLE* FAIR 56 51 84 NW5 30.05R  
EMPORIA* CLOUDY 54 51 89 N7 30.06R  

 
 
VAZ088>098-131400-  
SOUTHEAST VIRGINIA  
 
CITY SKY/WX TMP DP RH WIND PRES REMARKS
 
NORFOLK CLOUDY 55 48 77 N10 30.02R  
VIRGINIA BEACH NOT AVBL  
NORFOLK NAVAL NOT AVBL  
WEST POINT* NOT AVBL  
SALUDA* CLOUDY 52 49 90 N9 30.05R  
NEWPORT NEWS NOT AVBL  
LANGLEY AFB MOSUNNY 54 52 94 N7 30.03R  
FORT EUSTIS NOT AVBL  
WILLIAMSBURG* FAIR 54 50 87 NW7 30.06R  
HR EXEC AP* PTSUNNY 54 46 76 N9 30.04R  
FRANKLIN* PTSUNNY 55 51 85 N7 30.05R  
US460-WAKEFLD FAIR 56 50 80 VRB6 30.04S  

 
 
VAZ020-022-025-037-045-131400-  
WEST CENTRAL AND SOUTHWEST VIRGINIA  
 
CITY SKY/WX TMP DP RH WIND PRES REMARKS
 
STAUNTON* FAIR 55 47 76 CALM 30.08S  
WAYNESBORO* FAIR 54 46 73 CALM 30.06S  
HOT SPRINGS VA NOT AVBL  
LYNCHBURG FAIR 61 46 57 CALM 30.06R  
DANVILLE FAIR 60 45 57 CALM 30.06S  
SOUTH BOSTON* NOT AVBL  
MARTINSVILLE FAIR 57 47 71 CALM 30.10S  
ROANOKE NOT AVBL  
BLACKSBURG FAIR 55 46 70 CALM 30.12S  
DUBLIN* NOT AVBL  
MARION* FAIR 53 43 68 W6 30.14R  
HILLSVILLE* NOT AVBL  
RICHLANDS* FAIR N/A N/A N/A CALM 30.12S  
WISE* FAIR 54 39 58 CALM 30.12S  
ABINGDON* NOT AVBL  

 
 
MDZ021>025-VAZ099-100-131400-  
SOUTHERN MARYLAND AND THE DELMARVA PENINSULA  
 
CITY SKY/WX TMP DP RH WIND PRES REMARKS
 
PATUXENT RIVER NOT AVBL  
BAY BRIDGE APT NOT AVBL  
LEONARDTOWN CLOUDY 50 45 81 NW3 30.06S  
DOVER NOT AVBL  
GEORGETOWN NOT AVBL  
EASTON CLOUDY 50 46 87 N5 30.09R  
CAMBRIDGE CLOUDY 50 46 87 N7 30.06R  
SALISBURY NOT AVBL  
TANGIER NOT AVBL  
OCEAN CITY CLOUDY 50 44 80 NE9 30.03R  
WALLOPS ISLAND NOT AVBL  
ACCOMACK* CLOUDY 49 41 72 N7 30.04R  

 
 
NCZ012>017-030>032-131400-  
NORTH CENTRAL AND EASTERN NORTH CAROLINA  
 
CITY SKY/WX TMP DP RH WIND PRES REMARKS
 
ROANOKE RAPIDS FAIR 55 54 94 N9 30.04R  
RALEIGH PTSUNNY 61 47 59 VRB5 30.05R  
ELIZABETH CITY PTSUNNY 56 47 71 N14 30.01R  
AHOSKIE* CLOUDY 54 52 93 N7 30.05R  
EDENTON* PTSUNNY 57 52 84 N9 30.04R  
CURRITUCK* NOT AVBL  
KILL DEVIL HLS CLOUDY 51 46 80 N8 30.00R  
MANTEO NOT AVBL  
CAPE HATTERAS CLOUDY 55 49 80 N13G22 29.99R  
TARBORO* NOT AVBL  
GOLDSBORO NOT AVBL  
WASHINGTON NOT AVBL  
GREENVILLE NOT AVBL  
NEW BERN FAIR 57 51 80 NE9 30.04R  
WILMINGTON FAIR 62 52 69 N7 30.03R  

 
 
VAZ048-131400-  
ELSEWHERE  
 
CITY SKY/WX TMP DP RH WIND PRES REMARKS
 
HARRISBURG PA NOT AVBL  
BALTIMORE CLOUDY 52 44 74 NE7 30.05R  
ANNAPOLIS CLOUDY 52 48 86 NW7 30.06R  
ANDREWS AFB NOT AVBL  
PHILADELPHIA NOT AVBL  
GREENSBORO CLOUDY 61 43 51 NW7 30.07R  
ROCKY MOUNT FAIR 59 51 75 N9 30.04S  

 
 
VAZ100-131400-  
MARINE  
 
STATION/POSITION TIME TEMP WIND PRES WAVE SWELL
 
AIR SEA DIR/SP/G HT/PER HT/PER  
(UTC) (F) (DEG/KT/KT) (MB) (FT/S) (FT/S)  

 
 
 
CLICK HERE TO GO TO PREVIOUS BULLETINS.

The Nexlab VA Page
The Nexlab NC Page
The Nexlab MD Page Main Text Page